Location: Mount Cross
(36.6390°N, 79.4878°W)
Time: 18:11:33
(UTC+00:00)

Courier 1B Rocket - Pass Details

Date: 22 March 2023
Orbit: 920 x 1202 km, 28.2° (Epoch: 08 June)

Event Time Altitude Azimuth Distance (km) Brightness Sun altitude
Rises 03:13:07 0° 241° (WSW) 3,688 8.2 -41.9°
Enters shadow 03:13:55 - 239° (WSW) 3,414 8.0 -42.0°
Reaches altitude 10° 03:16:04 10° 232° (SW) 2,701 - -42.3°
Maximum altitude 03:21:48 34° 170° (S) 1,493 - -43.2°
Drops below altitude 10° 03:27:21 10° 107° (ESE) 2,609 - -43.9°
Sets 03:30:09 0° 98° (E) 3,547 - -44.3°
